TimeEST,TemperatureF,Dew PointF,Humidity,Sea Level PressureIn,VisibilityMPH,Wind Direction,Wind SpeedMPH,Gust SpeedMPH,PrecipitationIn,Events,Conditions,WindDirDegrees,DateUTC
12:55 AM,57.9,57.0,97,30.10,0.2,ESE,4.6,-,N/A,Fog,Fog,110,2013-01-13 05:55:00
1:55 AM,57.7,56.8,97,30.11,0.2,East,4.6,-,N/A,Fog,Fog,80,2013-01-13 06:55:00
2:55 AM,57.9,57.0,97,30.11,0.2,East,6.9,-,N/A,Fog,Fog,90,2013-01-13 07:55:00
3:55 AM,57.6,56.7,97,30.10,0.2,East,4.6,-,N/A,Fog,Fog,90,2013-01-13 08:55:00
4:55 AM,57.4,56.5,97,30.09,0.2,East,3.5,-,N/A,Fog,Fog,90,2013-01-13 09:55:00
5:55 AM,56.7,55.9,97,30.11,0.2,Calm,Calm,-,N/A,Fog,Fog,0,2013-01-13 10:55:00
6:55 AM,56.1,55.6,98,30.12,0.2,ESE,3.5,-,N/A,Fog,Fog,110,2013-01-13 11:55:00
7:42 AM,55.4,55.4,100,30.14,0.2,Calm,Calm,-,N/A,Fog,Fog,0,2013-01-13 12:42:00
7:49 AM,55.4,55.4,100,30.13,0.5,Calm,Calm,-,N/A,Fog,Fog,0,2013-01-13 12:49:00
7:55 AM,55.8,55.2,98,30.13,0.5,ESE,3.5,-,N/A,Fog,Fog,120,2013-01-13 12:55:00
7:58 AM,55.4,55.4,100,30.14,0.5,Calm,Calm,-,N/A,Fog,Fog,0,2013-01-13 12:58:00
8:06 AM,55.4,55.4,100,30.14,0.5,Calm,Calm,-,N/A,Fog,Fog,0,2013-01-13 13:06:00
8:08 AM,55.4,55.4,100,30.14,0.8,SSE,3.5,-,N/A,,Mist,150,2013-01-13 13:08:00
8:13 AM,55.4,55.4,100,30.14,0.8,Calm,Calm,-,N/A,,Mist,0,2013-01-13 13:13:00
8:19 AM,55.4,55.4,100,30.14,0.5,Calm,Calm,-,N/A,Fog,Fog,0,2013-01-13 13:19:00
8:31 AM,55.4,55.4,100,30.14,0.5,Calm,Calm,-,N/A,Fog,Fog,0,2013-01-13 13:31:00
8:32 AM,55.4,55.4,100,30.14,0.5,Calm,Calm,-,N/A,Fog,Fog,0,2013-01-13 13:32:00
8:55 AM,56.1,55.6,98,30.15,0.5,Variable,3.5,-,N/A,Fog,Fog,0,2013-01-13 13:55:00
8:58 AM,57.2,55.4,94,30.15,0.8,SSE,4.6,-,N/A,,Mist,160,2013-01-13 13:58:00
8:59 AM,57.2,55.4,94,30.15,1.0,SSE,3.5,-,N/A,,Mist,150,2013-01-13 13:59:00
9:11 AM,57.2,57.2,100,30.15,3.0,SSE,4.6,-,N/A,,Overcast,150,2013-01-13 14:11:00
9:48 AM,59.0,59.0,100,30.15,9.0,Variable,3.5,-,N/A,,Scattered Clouds,0,2013-01-13 14:48:00
9:55 AM,59.5,59.0,98,30.15,10.0,Calm,Calm,-,N/A,,Scattered Clouds,0,2013-01-13 14:55:00
10:55 AM,65.5,64.9,98,30.14,10.0,WSW,5.8,-,N/A,,Clear,240,2013-01-13 15:55:00
11:55 AM,71.8,63.9,76,30.10,10.0,West,10.4,-,N/A,,Clear,260,2013-01-13 16:55:00
12:55 PM,74.7,60.4,61,30.08,10.0,SW,9.2,-,N/A,,Clear,230,2013-01-13 17:55:00
1:55 PM,77.2,60.8,57,30.07,10.0,SSW,9.2,-,N/A,,Partly Cloudy,200,2013-01-13 18:55:00
2:55 PM,76.6,59.4,55,30.07,10.0,SSW,9.2,-,N/A,,Clear,210,2013-01-13 19:55:00
3:55 PM,74.7,60.1,60,30.08,10.0,SSW,8.1,-,N/A,,Clear,210,2013-01-13 20:55:00
4:55 PM,72.3,59.7,64,30.09,10.0,South,3.5,-,N/A,,Clear,170,2013-01-13 21:55:00
5:43 PM,69.8,59.0,68,30.10,10.0,South,3.5,-,N/A,Rain,Light Rain,180,2013-01-13 22:43:00
5:55 PM,68.2,59.4,73,30.09,10.0,SSE,4.6,-,0.00,Rain,Light Rain,160,2013-01-13 22:55:00
6:04 PM,68.0,59.0,73,30.09,10.0,SSE,3.5,-,N/A,,Clear,150,2013-01-13 23:04:00
6:55 PM,66.6,58.1,74,30.08,10.0,SSE,5.8,-,0.00,,Clear,150,2013-01-13 23:55:00
7:55 PM,65.3,58.3,78,30.09,10.0,Variable,3.5,-,N/A,,Clear,0,2013-01-14 00:55:00
8:55 PM,63.9,59.7,86,30.08,10.0,South,4.6,-,N/A,,Clear,180,2013-01-14 01:55:00
9:55 PM,63.0,60.1,90,30.09,10.0,South,4.6,-,N/A,,Clear,170,2013-01-14 02:55:00
10:55 PM,61.9,59.7,93,30.12,10.0,South,4.6,-,N/A,,Clear,180,2013-01-14 03:55:00
11:55 PM,61.3,59.4,93,30.11,10.0,South,5.8,-,N/A,,Clear,170,2013-01-14 04:55:00